Precipitable_Water
0.42 0.35 0.28 0.36 0.42 0.40 0.36 0.34 0.33 0.37 0.44 0.43 0.41 0.32 0.45 0.65 0.61 0.61 0.58 0.55 0.57 0.62 0.79 0.92 0.96 1.02 1.13 1.18 1.19 1.09 1.04 1.05 1.05 1.04 0.94 0.98 0.97 0.98 0.94 1.03 1.24 1.33 1.34 1.35
0.39 0.35 0.38 0.42 0.45 0.38 0.33 0.30 0.30 0.37 0.41 0.43 0.36 0.35 0.47 0.55 0.61 0.60 0.61 0.57 0.59 0.65 0.70 0.77 0.89 0.94 0.92 0.94 1.06 1.10 1.14 1.07 1.03 1.04 0.94 0.89 0.96 1.03 1.12 1.26 1.27 1.34 1.33 1.34
0.38 0.36 0.47 0.39 0.38 0.33 0.31 0.31 0.36 0.39 0.41 0.46 0.39 0.33 0.42 0.51 0.65 0.67 0.62 0.69 0.66 0.62 0.64 0.70 0.79 0.88 0.91 0.86 0.89 1.02 1.12 1.15 1.16 1.16 1.08 0.99 1.03 1.15 1.10 1.19 1.30 1.26 1.28 1.31
0.40 0.41 0.41 0.41 0.36 0.35 0.31 0.39 0.40 0.36 0.36 0.31 0.46 0.26 0.37 0.43 0.53 0.59 0.62 0.63 0.71 0.71 0.71 0.71 0.71 0.75 0.80 0.84 0.90 0.93 1.02 1.14 1.15 1.14 1.06 0.94 0.92 0.97 1.05 1.08 1.20 1.23 1.26 1.28
0.39 0.37 0.36 0.35 0.35 0.38 0.34 0.42 0.43 0.37 0.36 0.37 0.40 0.35 0.34 0.42 0.42 0.51 0.62 0.71 0.71 0.73 0.74 0.69 0.72 0.78 0.81 0.80 0.80 0.87 0.98 1.07 1.15 1.12 1.13 0.98 1.02 1.06 1.12 1.12 1.18 1.21 1.25 1.29
0.40 0.42 0.40 0.37 0.41 0.39 0.40 0.39 0.40 0.36 0.35 0.28 0.35 0.33 0.35 0.39 0.42 0.39 0.52 0.65 0.73 0.76 0.74 0.76 0.78 0.84 0.86 0.90 0.90 0.89 0.99 1.05 1.13 1.17 1.13 1.08 1.07 1.09 1.10 1.12 1.12 1.17 1.22 1.27
0.36 0.35 0.40 0.40 0.35 0.41 0.38 0.35 0.27 0.30 0.29 0.26 0.39 0.32 0.38 0.39 0.43 0.41 0.41 0.51 0.65 0.76 0.77 0.78 0.79 0.77 0.82 0.87 0.90 0.95 0.96 0.97 1.09 1.16 1.19 1.11 1.12 1.13 1.13 1.12 1.15 1.13 1.10 1.14
0.31 0.28 0.34 0.41 0.38 0.36 0.36 0.35 0.28 0.27 0.31 0.39 0.45 0.32 0.28 0.44 0.44 0.42 0.39 0.38 0.54 0.65 0.76 0.78 0.84 0.84 0.83 0.83 0.89 0.92 0.94 0.96 1.04 1.12 1.16 1.15 1.18 1.17 1.20 1.22 1.20 1.11 1.05 1.07
0.33 0.31 0.38 0.40 0.41 0.41 0.39 0.32 0.37 0.32 0.39 0.36 0.37 0.39 0.42 0.37 0.37 0.36 0.36 0.41 0.44 0.50 0.64 0.77 0.85 0.90 0.87 0.88 0.90 0.93 0.95 0.99 1.04 1.12 1.17 1.16 1.18 1.24 1.24 1.24 1.23 1.13 1.07 1.11
0.37 0.33 0.38 0.39 0.42 0.40 0.40 0.49 0.35 0.32 0.25 0.25 0.25 0.30 0.33 0.40 0.38 0.38 0.40 0.42 0.52 0.63 0.63 0.62 0.80 0.89 0.94 0.96 0.96 1.02 1.04 1.01 1.07 1.10 1.13 1.13 1.15 1.23 1.25 1.23 1.17 1.13 1.19 1.19
0.41 0.39 0.37 0.38 0.36 0.33 0.32 0.32 0.41 0.36 0.33 0.24 0.23 0.28 0.42 0.43 0.45 0.42 0.43 0.45 0.44 0.47 0.57 0.58 0.65 0.77 0.95 0.99 1.04 1.01 1.06 1.08 1.10 1.11 1.12 1.15 1.18 1.22 1.25 1.21 1.22 1.22 1.22 1.17
0.41 0.40 0.33 0.37 0.41 0.40 0.37 0.33 0.34 0.30 0.29 0.39 0.33 0.34 0.43 0.43 0.41 0.41 0.42 0.42 0.44 0.48 0.50 0.55 0.55 0.68 0.83 1.00 1.00 0.99 1.00 1.07 1.11 1.13 1.15 1.15 1.21 1.22 1.17 1.20 1.23 1.21 1.15 1.13
0.42 0.36 0.34 0.33 0.40 0.40 0.33 0.35 0.38 0.36 0.33 0.28 0.28 0.31 0.46 0.41 0.39 0.40 0.41 0.41 0.44 0.45 0.48 0.56 0.60 0.58 0.58 0.72 0.94 0.99 0.98 0.97 1.08 1.15 1.22 1.21 1.19 1.18 1.19 1.17 1.12 1.12 1.13 1.13
0.48 0.40 0.35 0.30 0.36 0.36 0.31 0.32 0.35 0.40 0.35 0.33 0.33 0.35 0.37 0.37 0.37 0.41 0.43 0.48 0.58 0.49 0.45 0.48 0.62 0.66 0.64 0.65 0.72 0.89 1.00 1.08 1.14 1.12 1.11 1.15 1.18 1.10 1.12 1.14 1.08 1.11 1.14 1.11
0.47 0.41 0.38 0.37 0.36 0.38 0.35 0.33 0.31 0.28 0.30 0.27 0.30 0.33 0.34 0.37 0.33 0.38 0.44 0.51 0.52 0.52 0.49 0.46 0.47 0.66 0.74 0.71 0.78 0.86 1.00 1.03 1.05 1.06 1.08 1.00 1.03 1.05 1.11 1.10 1.10 1.14 1.11 1.07
0.48 0.41 0.44 0.37 0.35 0.35 0.36 0.37 0.32 0.31 0.29 0.29 0.31 0.29 0.34 0.34 0.35 0.41 0.44 0.41 0.40 0.46 0.50 0.50 0.47 0.48 0.74 0.85 0.84 0.91 0.98 1.02 1.00 0.95 0.95 0.99 1.02 1.01 1.03 1.09 1.06 1.06 1.03 0.98
0.48 0.43 0.36 0.31 0.38 0.34 0.29 0.34 0.33 0.31 0.32 0.31 0.27 0.32 0.37 0.38 0.42 0.41 0.41 0.43 0.39 0.38 0.46 0.47 0.48 0.52 0.84 0.89 0.85 0.81 0.85 0.90 0.90 0.89 0.92 0.94 0.96 1.01 1.01 1.01 1.01 0.96 0.92 0.88
0.46 0.48 0.43 0.40 0.38 0.25 0.35 0.39 0.37 0.35 0.34 0.35 0.35 0.35 0.37 0.38 0.38 0.41 0.44 0.43 0.40 0.43 0.48 0.50 0.51 0.68 0.80 0.82 0.79 0.80 0.81 0.82 0.83 0.86 0.88 0.91 0.96 0.97 0.96 0.92 0.90 0.87 0.80 0.73
0.60 0.48 0.47 0.35 0.35 0.36 0.36 0.41 0.39 0.34 0.31 0.37 0.35 0.37 0.41 0.43 0.45 0.44 0.45 0.44 0.39 0.43 0.47 0.52 0.59 0.68 0.67 0.68 0.77 0.79 0.81 0.83 0.82 0.82 0.85 0.88 0.88 0.86 0.85 0.79 0.76 0.72 0.69 0.70
0.52 0.55 0.45 0.45 0.33 0.31 0.40 0.43 0.44 0.41 0.30 0.36 0.40 0.40 0.40 0.43 0.39 0.41 0.45 0.41 0.47 0.51 0.55 0.57 0.65 0.69 0.71 0.72 0.73 0.71 0.70 0.70 0.69 0.71 0.73 0.76 0.74 0.71 0.69 0.67 0.66 0.68 0.66 0.60
0.40 0.48 0.41 0.39 0.38 0.40 0.47 0.45 0.45 0.31 0.32 0.38 0.47 0.46 0.46 0.42 0.44 0.47 0.48 0.43 0.46 0.51 0.56 0.64 0.67 0.65 0.64 0.66 0.66 0.63 0.67 0.66 0.68 0.65 0.64 0.63 0.63 0.60 0.63 0.63 0.63 0.59 0.56 0.54
0.35 0.43 0.41 0.43 0.37 0.32 0.55 0.50 0.38 0.42 0.44 0.47 0.52 0.50 0.47 0.48 0.49 0.49 0.50 0.51 0.47 0.49 0.55 0.61 0.62 0.63 0.66 0.67 0.64 0.62 0.60 0.60 0.58 0.59 0.57 0.57 0.59 0.60 0.60 0.58 0.57 0.55 0.54 0.51
0.35 0.40 0.45 0.46 0.42 0.59 0.58 0.56 0.58 0.55 0.54 0.56 0.62 0.60 0.56 0.54 0.53 0.54 0.52 0.55 0.55 0.53 0.55 0.60 0.60 0.60 0.61 0.62 0.62 0.57 0.53 0.55 0.57 0.58 0.58 0.57 0.57 0.57 0.58 0.55 0.55 0.51 0.47 0.45
0.33 0.50 0.46 0.49 0.52 0.59 0.70 0.71 0.67 0.65 0.60 0.61 0.63 0.61 0.61 0.59 0.59 0.58 0.57 0.57 0.55 0.57 0.59 0.60 0.59 0.56 0.55 0.59 0.60 0.58 0.59 0.61 0.60 0.58 0.58 0.58 0.55 0.52 0.51 0.50 0.48 0.46 0.45 0.41
0.37 0.38 0.41 0.43 0.47 0.48 0.53 0.59 0.66 0.68 0.69 0.65 0.64 0.63 0.62 0.63 0.62 0.60 0.59 0.59 0.61 0.62 0.62 0.61 0.57 0.56 0.57 0.60 0.60 0.61 0.62 0.62 0.59 0.59 0.58 0.56 0.53 0.52 0.49 0.48 0.46 0.43 0.41 0.38
0.35 0.35 0.38 0.40 0.47 0.43 0.44 0.48 0.65 0.61 0.56 0.61 0.63 0.64 0.65 0.67 0.65 0.65 0.62 0.65 0.65 0.64 0.63 0.61 0.60 0.59 0.58 0.59 0.59 0.61 0.62 0.61 0.59 0.57 0.57 0.58 0.54 0.49 0.47 0.43 0.39 0.40 0.36 0.35
Wind_Speed
18 16 16 16 15 17 14 16 14 11 4 11 12 11 10 6 5 2 1 3 4 5 7 10 12 12 12 15 18 19 17 16 15 14 14 14 15 16 16 16 16 16 15 16
19 20 18 17 17 14 13 14 13 13 9 8 11 12 7 8 8 4 4 3 3 5 7 9 11 13 14 16 17 17 16 15 13 13 13 13 13 14 14 15 16 16 16 16
23 20 18 17 14 13 13 13 14 14 13 11 9 11 8 7 10 4 5 6 6 6 7 9 10 12 14 15 15 15 14 13 13 13 12 12 12 12 14 15 15 16 16 18
26 22 20 15 14 14 14 12 14 11 11 8 7 9 12 9 10 9 6 7 8 8 8 9 11 12 13 14 14 14 13 13 13 13 13 13 13 12 13 15 15 16 17 18
26 25 22 19 17 15 14 10 10 10 12 12 12 10 11 9 12 12 8 9 9 9 9 10 12 13 14 15 15 14 13 14 14 14 13 14 14 13 14 15 16 16 17 19
27 25 24 22 18 17 14 12 13 13 12 12 12 10 8 3 10 9 9 12 12 12 11 12 13 13 14 15 16 15 15 15 15 15 16 16 15 16 15 16 17 18 19 21
28 28 24 20 19 17 15 12 10 7 10 10 7 8 8 9 11 7 5 12 13 15 14 14 16 16 16 17 18 17 18 17 17 18 18 18 18 18 17 18 18 20 21 21
26 25 27 19 19 17 16 16 11 7 4 5 7 8 5 7 5 6 7 8 10 15 16 18 18 18 19 19 20 20 20 20 19 19 19 19 20 21 20 20 19 20 22 23
27 28 24 25 20 21 16 18 18 18 11 13 9 6 12 9 8 7 9 8 9 11 15 19 19 21 20 20 21 22 21 21 21 20 20 21 22 22 21 21 21 22 23 24
29 22 27 27 24 22 21 14 16 15 12 12 11 12 5 6 12 8 8 4 5 8 11 14 21 21 23 22 22 24 24 24 24 24 23 22 23 23 23 22 23 23 23 24
33 26 21 26 27 23 20 19 15 17 13 11 9 9 8 9 7 8 7 8 8 8 9 11 14 18 22 22 22 22 23 25 25 25 25 24 23 24 25 24 24 23 23 24
37 21 23 24 24 24 22 20 21 15 14 11 10 14 11 10 12 14 14 14 13 11 10 10 11 13 16 20 21 21 22 24 27 27 26 25 25 24 25 25 24 24 24 22
32 32 23 25 26 25 24 25 21 18 18 18 14 13 13 12 12 13 13 13 14 13 13 12 11 12 14 17 19 21 22 22 24 26 25 24 25 24 24 24 24 23 21 21
27 33 31 25 23 21 24 23 23 22 18 16 18 18 16 16 13 15 13 13 17 13 12 12 12 12 13 14 17 19 21 22 21 22 24 25 22 24 24 23 22 22 22 22
25 29 35 31 27 23 23 24 24 26 22 21 18 20 17 16 15 12 13 13 11 10 11 12 14 14 14 15 15 17 17 18 19 20 21 23 23 22 22 22 22 22 23 23
26 28 31 30 29 29 24 24 24 22 23 23 21 22 19 18 17 14 16 15 16 15 17 13 13 16 16 15 15 15 16 17 17 18 20 21 22 22 21 22 22 22 22 23
21 24 27 29 28 27 29 26 20 20 20 18 19 17 17 17 17 16 15 14 14 17 14 15 17 18 15 15 16 17 18 18 19 19 20 20 20 21 21 21 22 22 23 25
21 18 25 22 20 33 24 24 25 22 20 19 19 18 18 18 19 18 14 14 16 15 18 19 19 17 17 18 19 19 21 21 21 21 21 20 20 21 21 21 22 23 24 25
26 21 18 23 26 24 28 21 19 20 21 20 19 20 20 19 15 16 15 16 18 17 18 18 17 17 17 17 16 16 17 17 18 19 19 20 20 20 21 21 22 23 25 27
28 29 25 16 21 23 22 23 17 19 22 19 20 21 20 18 16 15 14 15 15 15 16 16 15 14 14 15 15 15 15 16 17 18 18 18 19 20 21 22 23 25 27 28
25 26 29 26 20 19 21 24 23 26 18 18 16 13 12 14 14 13 14 15 16 16 15 15 15 15 15 15 15 16 16 17 17 17 18 18 19 20 22 23 24 26 27 28
21 22 23 23 22 25 13 13 24 19 18 19 19 17 16 14 13 14 15 15 15 15 16 16 16 16 16 17 17 17 17 17 17 17 18 19 21 22 23 24 26 27 29 30
22 22 22 21 22 17 20 22 17 19 19 18 16 16 17 15 15 16 16 16 16 16 17 17 17 17 17 18 18 18 17 17 18 19 20 21 23 24 25 26 27 28 30 31
26 24 20 19 24 22 17 17 21 20 19 19 18 19 17 17 17 18 18 18 18 18 18 18 18 18 18 19 19 19 19 19 20 21 22 23 24 25 27 28 30 31 32 32
23 21 24 22 20 20 22 22 19 18 17 18 19 19 20 19 20 20 20 20 20 19 19 19 19 19 19 19 19 20 21 22 22 23 23 24 26 27 28 30 31 32 33 33
25 25 22 18 20 20 20 21 19 21 25 28 25 23 22 22 21 21 21 20 19 19 19 20 20 20 19 19 20 21 23 24 24 25 26 27 28 30 31 31 31 32 33 33
Wind_Direction
245 251 253 257 261 265 283 276 289 264 233 289 286 269 261 228 254 210 108 55 84 79 101 139 152 150 147 155 160 157 157 159 161 170 179 181 182 185 193 200 204 210 214 217
246 243 253 257 273 278 274 275 272 280 282 259 291 272 230 240 234 228 212 182 137 127 135 146 152 153 156 155 157 165 168 175 179 180 181 186 192 201 206 209 213 218 222 225
241 247 246 253 263 267 267 263 269 274 283 263 280 271 260 240 236 211 239 204 186 161 157 161 163 168 169 171 177 176 180 182 186 190 195 198 202 209 214 218 223 227 230 231
243 241 246 249 250 257 254 258 272 273 276 267 285 276 252 241 218 234 214 212 201 189 178 178 180 182 184 186 187 187 190 193 197 202 206 209 212 216 223 228 232 235 237 238
240 238 237 240 249 248 259 270 267 265 262 263 251 263 316 221 227 222 219 215 207 205 203 199 199 197 196 197 201 205 207 208 212 215 219 219 223 231 238 237 238 240 243 245
239 237 235 243 241 245 253 254 256 257 260 261 262 249 237 247 245 217 223 224 224 217 216 214 212 210 211 212 213 216 218 219 223 225 228 232 233 239 240 241 242 245 252 251
233 234 233 235 236 236 232 232 243 254 256 245 260 257 246 222 233 219 270 226 228 227 226 224 219 222 221 222 222 224 227 233 233 233 235 238 242 242 248 247 250 251 255 257
227 228 226 217 227 225 223 223 229 231 219 275 300 243 246 191 187 244 266 263 241 237 234 231 229 226 228 227 228 230 233 238 239 237 240 244 245 249 252 251 254 258 260 262
226 228 226 222 222 228 218 226 239 258 262 266 228 251 255 226 249 252 267 260 254 253 244 234 235 232 231 231 232 234 236 239 241 242 244 247 248 251 254 253 258 266 268 270
230 229 229 216 219 224 231 235 235 236 248 255 260 267 255 282 243 237 262 257 280 273 263 249 239 238 236 238 238 238 240 243 245 247 248 251 251 253 254 257 262 267 272 273
223 232 229 221 215 216 219 229 233 240 239 250 260 255 225 227 260 252 264 272 264 275 261 257 251 244 237 241 238 239 242 243 247 247 249 251 253 254 255 260 265 267 273 277
219 226 231 226 212 223 226 223 229 237 236 241 232 238 259 270 263 271 268 269 272 258 268 260 255 248 240 238 241 242 245 249 250 249 248 250 254 255 257 261 264 268 272 273
215 222 228 222 218 217 225 232 227 238 242 242 241 246 260 265 275 278 270 264 269 261 262 256 251 249 248 245 242 245 248 252 252 251 247 251 257 256 259 261 265 266 265 272
216 221 222 223 222 222 226 231 232 233 234 245 251 261 262 268 266 266 260 282 273 256 255 254 250 253 253 250 249 251 253 254 255 252 253 256 255 259 261 261 263 263 265 271
217 223 222 227 228 225 222 226 232 239 243 245 250 255 259 264 279 264 264 251 262 258 245 256 258 257 254 254 255 254 256 256 257 253 255 259 259 261 259 260 261 263 266 269
221 223 220 227 225 233 241 235 228 229 237 249 253 257 261 265 263 260 264 265 263 260 257 266 267 267 257 251 258 260 259 258 259 263 260 260 260 261 260 261 264 265 266 271
221 221 221 226 227 232 236 230 236 234 240 246 253 260 260 264 264 269 271 266 269 264 254 261 267 268 252 257 261 262 262 262 264 265 264 263 261 261 263 262 262 264 268 274
225 230 224 223 219 231 236 235 237 243 248 255 260 257 258 261 267 269 265 264 267 261 263 265 266 259 258 263 266 264 264 263 264 265 264 260 261 260 260 262 265 268 271 275
222 232 230 226 225 238 230 225 228 234 245 247 257 258 259 265 264 263 267 267 270 264 263 262 261 257 259 260 261 263 262 262 261 260 260 260 260 257 259 263 266 270 274 278
219 232 231 223 221 230 231 230 233 240 249 248 256 258 259 258 259 266 272 268 266 264 263 258 254 253 253 256 258 261 262 261 262 260 259 257 257 259 262 267 269 274 278 281
218 226 230 227 231 237 238 234 230 234 239 250 267 262 254 257 264 260 266 268 262 260 256 254 251 253 253 254 257 262 262 263 261 259 259 259 260 263 267 271 275 279 281 283
210 220 219 223 227 233 238 235 223 236 237 248 261 255 263 254 261 262 265 265 261 256 253 250 251 254 257 260 262 262 264 264 262 261 260 262 266 270 272 275 279 282 283 285
212 216 223 223 225 241 231 237 243 241 244 252 259 261 258 251 260 263 264 263 261 257 253 252 254 256 260 261 262 264 266 266 264 265 268 270 272 274 275 279 282 285 286 287
225 215 222 221 232 240 238 249 242 244 248 250 256 261 257 256 262 264 263 264 261 258 255 255 255 258 262 264 265 266 267 267 269 270 272 273 275 277 280 282 285 287 289 288
223 224 227 237 237 236 238 239 238 241 245 250 257 260 260 258 263 265 266 263 261 258 256 255 256 258 264 265 266 268 269 270 273 274 276 278 278 281 284 286 288 288 289 290
223 229 232 235 239 244 248 252 248 250 255 253 256 259 264 261 265 264 266 263 258 256 256 256 257 260 263 266 269 272 274 275 276 277 279 280 281 284 285 286 288 290 290 291